Flag for Germany Weather past 2 weeks in Halle, Saxony-Anhalt, Germany

Now
75 °F

Sunny.


Feels Like: 77 °F
Forecast: 65 / 80 °F
Wind: 3 mph from Southeast

Location: Leipzig-Schkeuditz

Current Time: Jul 5, 2015 at 6:51:04 AM

Latest Report: Jul 5, 2015 at 6:20 AM


Visibility: 10 mi

Pressure: 30.07 "Hg

Humidity: 61%

Dew point: 61 °F

Location of HalleLocation

Historic Weather in Halle — Graph

°F

Halle temperature yesterday

Maximum temperature yesterday: 99 °F (at 2:50 PM)
Minimum temperature yesterday: 72 °F (at 4:50 AM)
Average temperature yesterday: 86 °F

Past Weeks' High & Low Weather Summary

 TemperatureHumidityPressure
High99 °F (Jul 4, 2:50 PM)100% (Jun 22, 5:20 AM)30.27 "Hg (Jun 22, 5:20 AM)
Low48 °F (Jun 25, 3:20 AM)24% (Jul 2, 6:50 PM)29.62 "Hg (Jun 23, 1:50 AM)
Average66 °F64%30.08 "Hg
* Reported Jun 20 5:20 AM — Jul 5 5:20 AM, Halle, Weather by CustomWeather, © 2015

Note: Actual official high and low records may vary slightly from our data, if they occured in-between our weather recording intervals... More about our weather records

Advertising

Halle weather history for previous 24 hours

 ConditionsComfort  
Time TempWeatherWind HumidityBarometerVisibility
5:20 AM
Sun, Jul 5
73 °FClear.5 mph65%30.07 "Hg10 mi
4:50 AM73 °FClear.6 mph65%30.07 "Hg10 mi
4:20 AM73 °FClear.6 mph65%30.07 "Hg10 mi
3:50 AM75 °FPassing clouds.9 mph61%30.07 "HgN/A
3:20 AM75 °FPassing clouds.12 mph61%30.07 "HgN/A
2:50 AM77 °FPassing clouds.9 mph57%30.07 "HgN/A
2:20 AM79 °FPassing clouds.13 mph54%30.07 "HgN/A
1:50 AM82 °FPartly cloudy.8 mph55%30.07 "HgN/A
1:20 AM82 °FThunderstorms. Passing clouds.5 mph51%30.07 "HgN/A
12:50 AM84 °FPassing clouds.1 mph48%30.07 "HgN/A
12:20 AM82 °FPartly cloudy.10 mph51%30.04 "HgN/A
11:50 PM
Sat, Jul 4
84 °FPassing clouds.9 mph48%30.04 "HgN/A
11:20 PM84 °FClear.10 mph48%30.04 "Hg10 mi
10:50 PM86 °FClear.9 mph46%30.04 "Hg10 mi
10:20 PM86 °FSunny.9 mph43%30.07 "Hg10 mi
9:50 PM88 °FSunny.9 mph40%30.07 "Hg10 mi
9:20 PM88 °FSunny.7 mph38%30.07 "Hg10 mi
8:50 PM90 °FSunny.8 mph36%30.04 "Hg10 mi
8:20 PM93 °FSunny.8 mph30%30.04 "Hg10 mi
7:50 PM95 °FSunny.7 mph28%30.07 "Hg10 mi
7:20 PM97 °FSunny.8 mph25%30.07 "Hg10 mi
6:50 PM97 °FSunny.9 mph25%30.04 "Hg10 mi
6:20 PM97 °FSunny.9 mph25%30.07 "Hg10 mi
5:50 PM99 °FSunny.8 mph24%30.07 "Hg10 mi
5:20 PM99 °FSunny.7 mph24%30.07 "Hg10 mi
4:50 PM99 °FPassing clouds.7 mph24%30.07 "HgN/A
4:20 PM99 °FSunny.6 mph24%30.09 "Hg10 mi
3:50 PM99 °FSunny.8 mph25%30.09 "Hg10 mi
3:20 PM99 °FSunny.7 mph25%30.09 "Hg10 mi
2:50 PM99 °FSunny.8 mph24%30.09 "Hg10 mi
2:20 PM97 °FSunny.9 mph27%30.09 "Hg10 mi
1:50 PM97 °FSunny.9 mph28%30.12 "Hg10 mi
1:20 PM95 °FSunny.13 mph28%30.12 "Hg10 mi
12:50 PM95 °FPassing clouds.9 mph26%30.12 "HgN/A
12:20 PM95 °FSunny.8 mph28%30.12 "Hg10 mi
11:50 AM93 °FSunny.7 mph34%30.12 "Hg10 mi
11:20 AM91 °FSunny.7 mph36%30.15 "Hg10 mi
10:50 AM90 °FSunny.7 mph41%30.15 "Hg10 mi
10:20 AM88 °FSunny.6 mph43%30.15 "Hg10 mi
9:50 AM86 °FSunny.7 mph46%30.15 "Hg10 mi
9:20 AM82 °FSunny.6 mph51%30.15 "Hg10 mi
8:50 AM81 °FSunny.7 mph54%30.15 "Hg10 mi
8:20 AM79 °FSunny.7 mph58%30.15 "Hg10 mi
7:50 AM79 °FSunny.8 mph58%30.15 "Hg10 mi
7:20 AM77 °FSunny.7 mph61%30.15 "Hg10 mi
6:50 AM75 °FSunny.7 mph65%30.15 "Hg10 mi
6:20 AM73 °FSunny.7 mph69%30.15 "Hg10 mi
Weather by CustomWeather, © 2015

See weather overviewHow to use our weather pages